Location: Chassagnes
(44.4047°N, 4.1657°E)
Time: 12:13:58
(UTC+00:00)

AQUARIUS - Pass Details

Date: 27 October 2020
Orbit: 650 x 653 km, 98.0° (Epoch: 23 November)

Event Time Altitude Azimuth Distance (km) Brightness Sun altitude
Rises 17:13:29 0° 167° (SSE) 2,960 7.5 -6.7°
Reaches altitude 10° 17:15:41 10° 169° (SSE) 2,054 6.7 -7.1°
Maximum altitude 17:20:10 82° 257° (WSW) 665 4.3 -7.9°
Drops below altitude 10° 17:24:42 10° 345° (NNW) 2,069 6.8 -8.7°
Sets 17:26:55 0° 347° (NNW) 2,985 7.6 -9.1°
